Hartford, CT

6:17 AM EDT on July 23, 2017 (GMT -0400)
Hartford-brainard

Weather History for KHFD - March, 2013

Change the Weather History Date:

Saturday, March 2, 2013

  Actual Average Record
Temperature  
Mean Temperature 36 °F -  
Max Temperature 39 °F 43 °F 64 °F (2004)
Min Temperature 33 °F 24 °F 2 °F (1980)
Degree Days  
Heating Degree Days 28    
Moisture  
Dew Point 25 °F    
Average Humidity 64    
Maximum Humidity 73    
Minimum Humidity 53    
Precipitation  
Precipitation 0.00 in - - ()
Sea Level Pressure  
Sea Level Pressure 29.71 in    
Wind  
Wind Speed 8 mph (NW)    
Max Wind Speed 12 mph    
Max Gust Speed -    
Visibility 10 miles    
Events Snow    
Averages and records for this station are not official NWS values.
T = Trace of Precipitation, MM = Missing Value Source: NWS Daily Summary

Daily Weather History Graph

Daily Weather History Graph

Search for Another Location

Airport or City:

Trip Planner

Search our weather history database for the weather conditions in past years. The results will help you decide how hot, cold, wet, or windy it might be!

Date:

Astronomy

Mar. 02, 2013 Rise Set
Actual Time 6:23 AM EST 5:42 PM EST
Civil Twilight 5:55 AM EST 6:10 PM EST
Nautical Twilight 5:23 AM EST 6:42 PM EST
Astronomical Twilight 4:51 AM EST 7:14 PM EST
Moon 11:24 PM EST (3/2) 8:44 AM EST (3/2)
Length of Visible Light 12h 14m
Length of Day
11h 18m
Waning Gibbous, 74% of the Moon is Illuminated
Mar 2
Waning Gibbous
Mar 4
Last Quarter
Mar 11
New
Mar 19
First Quarter
Mar 27
Full

Hourly Weather History & Observations

Time (EST) Temp. Windchill Dew Point Humidity Pressure Visibility Wind Dir Wind Speed Gust Speed Precip Events Conditions
12:53 AM 36.0 °F 30.3 °F 25.0 °F 64% 29.73 in 10.0 mi West 6.9 mph - N/A   Overcast
1:53 AM 35.1 °F 28.6 °F 27.0 °F 72% 29.73 in 10.0 mi WNW 8.1 mph - N/A   Overcast
2:53 AM 35.1 °F 27.9 °F 26.1 °F 70% 29.72 in 10.0 mi NW 9.2 mph - N/A   Overcast
3:07 AM 35.6 °F 27.5 °F 26.6 °F 70% 29.72 in 10.0 mi WNW 11.5 mph - N/A   Overcast
3:24 AM 35.6 °F 29.2 °F 26.6 °F 70% 29.72 in 10.0 mi WNW 8.1 mph - N/A   Overcast
3:53 AM 35.1 °F 28.6 °F 26.1 °F 70% 29.72 in 10.0 mi NW 8.1 mph - N/A   Overcast
4:53 AM 35.1 °F 28.6 °F 25.0 °F 67% 29.73 in 10.0 mi NW 8.1 mph - N/A   Overcast
5:53 AM 34.0 °F 28.8 °F 24.1 °F 67% 29.73 in 10.0 mi NW 5.8 mph - N/A   Overcast
6:53 AM 34.0 °F 29.8 °F 24.1 °F 67% 29.73 in 10.0 mi West 4.6 mph - N/A   Overcast
7:53 AM 35.1 °F 27.9 °F 24.1 °F 64% 29.74 in 10.0 mi WNW 9.2 mph - N/A   Overcast
8:53 AM 35.1 °F 27.9 °F 25.0 °F 67% 29.73 in 10.0 mi WNW 9.2 mph - N/A   Overcast
9:53 AM 36.0 °F 28.0 °F 24.1 °F 62% 29.72 in 10.0 mi WNW 11.5 mph - N/A   Overcast
10:53 AM 37.9 °F 30.9 °F 24.1 °F 57% 29.71 in 10.0 mi NNW 10.4 mph - N/A   Overcast
11:53 AM 39.0 °F 34.8 °F 24.1 °F 55% 29.70 in 10.0 mi NW 5.8 mph - N/A   Overcast
12:53 PM 39.9 °F 35.1 °F 24.1 °F 53% 29.68 in 10.0 mi NNW 6.9 mph - N/A   Overcast
1:53 PM 39.9 °F 33.9 °F 24.1 °F 53% 29.68 in 10.0 mi NW 9.2 mph - N/A   Overcast
2:53 PM 39.9 °F 35.1 °F 25.0 °F 55% 29.67 in 10.0 mi WNW 6.9 mph - N/A   Overcast
3:53 PM 39.0 °F 34.8 °F 24.1 °F 55% 29.67 in 10.0 mi NW 5.8 mph - N/A   Overcast
4:53 PM 37.9 °F 32.1 °F 25.0 °F 60% 29.67 in 10.0 mi NW 8.1 mph - N/A   Overcast
5:53 PM 37.9 °F 32.7 °F 24.1 °F 57% 29.68 in 10.0 mi NW 6.9 mph - N/A   Overcast
6:53 PM 37.0 °F 32.4 °F 24.1 °F 59% 29.70 in 10.0 mi NW 5.8 mph - N/A   Overcast
8:53 PM 36.0 °F 30.3 °F 24.1 °F 62% 29.71 in 10.0 mi NNW 6.9 mph - N/A   Overcast
9:53 PM 34.0 °F 29.8 °F 26.1 °F 73% 29.71 in 8.0 mi NNW 4.6 mph - 0.00 in Snow Light Snow
10:53 PM 34.0 °F 27.2 °F 25.0 °F 70% 29.70 in 10.0 mi NW 8.1 mph - 0.00 in   Overcast
11:53 PM 33.1 °F 26.9 °F 24.1 °F 70% 29.69 in 10.0 mi NW 6.9 mph - N/A   Overcast